Location: Crni Vrh Observatory
(45.9460°N, 14.0712°E)
Time: 10:57:39
(UTC+01:00)

N. Korean satellite - Visible Passes

Search period start: 18 January 2018 00:00
Search period end: 28 January 2018 00:00
Orbit: 459 x 515 km, 97.2° (Epoch: 17 January)

Date Brightness Start Highest point End Pass type
(mag) Time Alt. Az. Time Alt. Az. Time Alt. Az.
18 Jan 10.0 05:45:43 10° ENE 05:47:06 12° E 05:48:29 10° ESE visible
18 Jan 6.5 17:55:35 10° SSE 17:59:12 88° W 18:02:47 10° NNW visible
19 Jan 6.5 06:53:47 10° NNE 06:57:15 88° E 07:00:42 10° SSW visible
19 Jan 6.8 17:32:07 10° SSE 17:35:35 46° ENE 17:39:01 10° N visible
19 Jan 10.0 19:07:39 10° WSW 19:09:20 13° W 19:11:00 10° WNW visible
20 Jan 7.9 06:30:15 10° NNE 06:33:33 42° E 06:36:51 10° S visible
20 Jan 9.1 18:42:34 10° SSW 18:45:29 23° W 18:48:25 10° NW visible
21 Jan 9.3 06:07:02 10° NE 06:09:46 22° E 06:12:31 10° SSE visible
21 Jan 7.8 18:18:17 10° S 18:21:44 44° W 18:25:09 10° NNW visible
22 Jan 10.1 05:44:37 10° ENE 05:45:55 12° E 05:47:12 10° ESE visible
22 Jan 6.5 17:54:27 10° SSE 17:58:02 90° WNW 18:01:36 10° NNW visible
23 Jan 6.5 06:52:36 10° NNE 06:56:04 86° E 06:59:31 10° SSW visible
23 Jan 6.8 17:31:01 10° SE 17:34:25 44° ENE 17:37:47 10° N visible
23 Jan 10.0 19:06:29 10° WSW 19:08:09 13° W 19:09:49 10° WNW visible
24 Jan 8.0 06:29:03 10° NNE 06:32:21 41° E 06:35:39 10° S visible
24 Jan 9.1 18:41:24 10° SSW 18:44:19 23° W 18:47:12 10° NW visible
25 Jan 9.3 06:05:50 10° NE 06:08:34 21° E 06:11:17 10° SE visible
25 Jan 7.8 18:17:07 10° S 18:20:32 45° W 18:23:55 10° NNW visible
26 Jan 10.1 05:43:28 10° ENE 05:44:41 11° E 05:45:55 10° ESE visible
26 Jan 6.5 17:53:17 10° SSE 17:56:50 88° E 18:00:21 10° NNW visible
27 Jan 6.6 06:51:21 10° NNE 06:54:50 84° ESE 06:58:19 10° S visible
27 Jan 6.8 17:29:50 10° SE 17:33:12 43° ENE 17:36:32 10° N visible
27 Jan 10.0 19:05:15 10° WSW 19:06:56 13° W 19:08:37 10° WNW visible
